Location: Seattle
(47.6064°N, 122.3308°W)
Time: 02:31:21
(UTC-08:00)

A-11 Canister half - Pass Details

Date: 01 December 2020
Orbit: 1524 x 1684 km, 47.3° (Epoch: 21 January)

Event Time Altitude Azimuth Distance (km) Brightness Sun altitude
Rises 05:57:30 0° 237° (WSW) 4,931 - -16.2°
Exits shadow 05:57:40 - 237° (WSW) 4,877 11.2 -16.2°
Reaches altitude 10° 06:00:41 10° 235° (SW) 3,944 10.8 -15.7°
Maximum altitude 06:10:44 69° 156° (SSE) 1,771 9.4 -14.0°
Drops below altitude 10° 06:20:36 10° 76° (ENE) 3,880 12.0 -12.5°
Sets 06:23:42 0° 74° (ENE) 4,848 12.6 -12.0°
